This is the latest recevied weather packets stored in our database for station/object WX2NJ. If no packets are shown the sender has not sent any weather packets the latest 10 day(s).
| Time | Temp. | Humidity | Pressure | Rain* | Wind** | Luminosity | Snow |
|---|---|---|---|---|---|---|---|
| 1777924708 | 20° C | 51% | 1013.9 hPa | 0 mm | - | 525 W/m² | - |
| 1777924403 | 20.56° C | 51% | 1014.2 hPa | 0 mm | - | 521 W/m² | - |
| 1777924101 | 20.56° C | 49% | 1014.2 hPa | 0 mm | - | 544 W/m² | - |
| 1777923796 | 20.56° C | 46% | 1014.3 hPa | 0 mm | - | 527 W/m² | - |
| 1777923492 | 21.11° C | 46% | 1013.9 hPa | 0 mm | - | 595 W/m² | - |
| 1777923190 | 21.11° C | 48% | 1014 hPa | 0 mm | - | 493 W/m² | - |
| 1777922889 | 20.56° C | 48% | 1014.1 hPa | 0 mm | - | 591 W/m² | - |
| 1777922586 | 21.11° C | 47% | 1014.3 hPa | 0 mm | - | 399 W/m² | - |
| 1777922285 | 20.56° C | 47% | 1014.4 hPa | 0 mm | - | 636 W/m² | - |
| 1777921981 | 21.11° C | 47% | 1014.5 hPa | 0 mm | - | 652 W/m² | - |
| 1777921677 | 21.11° C | 46% | 1014.4 hPa | 0 mm | - | 537 W/m² | - |
| 1777921373 | 21.11° C | 46% | 1014.4 hPa | 0 mm | - | 676 W/m² | - |
| 1777921070 | 21.11° C | 46% | 1014.6 hPa | 0 mm | - | 608 W/m² | - |
| 1777920767 | 20.56° C | 47% | 1014.5 hPa | 0 mm | - | 692 W/m² | - |
| 1777920463 | 20.56° C | 48% | 1014.7 hPa | 0 mm | - | 727 W/m² | - |
| 1777920159 | 20.56° C | 48% | 1014.6 hPa | 0 mm | - | 728 W/m² | - |
| 1777919855 | 21.11° C | 48% | 1014.7 hPa | 0 mm | - | 645 W/m² | - |
| 1777919552 | 21.11° C | 48% | 1014.8 hPa | 0 mm | - | 563 W/m² | - |
| 1777919250 | 20.56° C | 51% | 1014.9 hPa | 0 mm | - | 809 W/m² | - |
| 1777918947 | 20.56° C | 49% | 1014.9 hPa | 0 mm | - | 736 W/m² | - |
| 1777918645 | 20.56° C | 51% | 1015.1 hPa | 0 mm | - | 131 W/m² | - |
| 1777918342 | 21.11° C | 50% | 1015.3 hPa | 0 mm | - | 756 W/m² | - |
| 1777918041 | 21.11° C | 48% | 1015.3 hPa | 0 mm | - | 713 W/m² | - |
| 1777917739 | 20.56° C | 49% | 1015.4 hPa | 0 mm | - | 805 W/m² | - |
| 1777917436 | 21.11° C | 48% | 1015.3 hPa | 0 mm | - | 783 W/m² | - |
* Rain latest hour (hover to see other rain measurements)
** Current wind speed in m/s (hover to see current wind gust speed)